Погода в Анталахе

Мадагаскар     14°54′22″S   50°16′33″E
темп.,
°C
ветер,
м/с
пор.,
м/с
влажн.,
%
обл.,
%
осадки,
мм/ч
давл.,
гПа
погр.,
м
10 августа, ср
ср1000:00+17ююз269356 0.3 1021138
03:00+17юз248954 0.6 102085
06:00+17ююз25939 0.3 1021121
09:00+22ююв3673100 0.5 1022958
12:00+21ююв498742 1.4 1020920
15:00+21ююв4108498 3.2 10191074
18:00+20ю4973100 0.1 1021959
21:00+20ююз397099 0.1 1022650
11 августа, чт
чт1100:00+19ююз397195 0.0 1021640
03:00+19ююз387580 0.1 1020649
06:00+18ююз248264 0.2 1020126
09:00+22ююв386988 0.5 10221252
12:00+23юв586572 0.4 10211447
15:00+24юв575924 0.6 10191504
18:00+21ю387198 0.0 1020968
21:00+18ю269284 0.8 1022238
12 августа, пт
пт1200:00+18ю279693 1.7 1021284
03:00+18ю2695100 3.4 1020212
06:00+17ююз269691 1.4 1020218
09:00+20ююв389192 2.9 1021695
12:00+20ююв389079 2.1 1020688
15:00+22юв367566 3.3 10191193
18:00+19ю2589100 0.3 1020155
21:00+18ююз259554 1.2 1021142
13 августа, сб
сб1300:00+18ююз249782 1.1 1020114
03:00+17ююз239851 2.3 1019102
06:00+18ююз239794 1.8 1019126
09:00+21ю269294 3.3 1021512
12:00+23юв4678100 1.6 1019929
15:00+19ююв289695 3.7 1018454
18:00+19ю2795100 1.8 1019221
21:00+18ююз239685 2.1 102097
14 августа, вс
вс1400:00+17ююз239746 0.5 102076
03:00+18ююз239696 1.2 101880
06:00+17ююз1296100 0.6 101967
09:00+21ююв258873 1.6 1020680
12:00+24юв356779 1.2 10181270
15:00+24вюв34649 1.6 10161234
18:00+19ююв249313 0.3 1018123
21:00+18ююз239723 0.9 101988